Regional Weather Roundup
Issued by NWS

Home | Current Version | Previous Version | Text Only | Print | Product List | Glossary On
Versions: 1 2 3 4 5 6 7 8 9 10 11 12 13 14 15 16 17 18 19 20 21 22 23 24 25 26 27 28 29 30 31 32 33 34 35 36 37 38 39 40 41 42 43 44 45 46 47 48 49 50
000
ASUS42 KTBW 280917
RWRFL
FLORIDA REGIONAL WEATHER ROUNDUP
NATIONAL WEATHER SERVICE TAMPA BAY RUSKIN FL
500 AM EDT WED JUN 28 2017

NOTE: "FAIR" INDICATES FEW OR NO CLOUDS BELOW 12,000 FEET WITH NO
SIGNIFICANT WEATHER AND/OR OBSTRUCTIONS TO VISIBILITY.

FLZ001>010-012>015-112-114-115-281000-
PANHANDLE FLORIDA

CITY           SKY/WX    TMP DP  RH WIND       PRES   REMARKS
PENSACOLA      CLOUDY    76  69  79 NE5       30.00S
PENSACOLA NAS  CLOUDY    76  70  82 NE6       29.99S
CRESTVIEW      CLOUDY    71  69  93 CALM      30.03S
DUKE FIELD     FAIR      71  68  92 CALM      30.01S
VALPARAISO     PTCLDY    75  69  82 NE5       30.01R
MARY ESTHER    PTCLDY    74  69  86 NE6       29.99S
PANAMA CITY    FAIR      74  71  91 NE3       30.00S
TYNDALL AFB    CLOUDY    75  72  91 CALM      30.00S
APALACHICOLA   CLOUDY    75  75 100 NE5       29.99S

STATION/POSITION SKY/WX   TEMP    WIND        PRES    WAVE   SWELL
                          AIR SEA DIR/SP/G            HT/PER HT/PER
                          (F)     (DEG/KT/KT) (MB)    (FT/S) (FT/S)
30.1N   87.6W              81 82   80/ 12/ 14 1015.0R   2/ 4
29.2N   88.2W              82 83  120/  8/ 10 1014.9
28.8N   86.0W              81 83  110/  6/  6 1015.1S   1/ 8   2/ 8
PANAMA CITY BEAC           76 82   60/  4/  5 1016.2R
TOWER C                    81     140/  6/  7 1016.2R
28.5N   84.5W              82 84  200/  2/  4 1015.4R   1/ 4   2/ 4

$$
FLZ011-016>038-118-127-128-134-139-239-281000-
NORTH FLORIDA

CITY           SKY/WX    TMP DP  RH WIND       PRES   REMARKS
MARIANNA       CLOUDY    72  71  97 NE5       30.02R
TALLAHASSEE    MOCLDY    73  72  96 CALM      30.02S
PERRY          CLOUDY    72  71  96 CALM      30.03R
LIVE OAK       FOG       73  73 100 N6        30.05R VSB 3/4
CROSS CITY     CLOUDY    72  70  94 NE6       30.02R
LAKE CITY      CLOUDY    70  70 100 NE5       30.05R
GAINESVILLE    CLOUDY    71  70  96 N3        30.03R
WILLISTON      CLEAR     73  73 100 MISG      30.02S
PALATKA        MOCLDY    73  73 100 N3        30.03S
MAYPORT NAS    CLOUDY    75  73  93 N6        29.99R
JACKSONVILLE   CLOUDY    73  72  96 N3        30.04R
JAX NAS        CLOUDY    76  73  91 N8        30.04R
JAX CECIL      CLOUDY    73  73 100 CALM      30.04R
FERNANDINA BEA FAIR      77  73  88 N3        30.03R
ST AUGUSTINE   CLOUDY    75  73  94 N5        30.03F
PALM COAST     FAIR      73  73 100 CALM      30.01F

STATION/POSITION SKY/WX   TEMP    WIND        PRES    WAVE   SWELL
                          AIR SEA DIR/SP/G            HT/PER HT/PER
                          (F)     (DEG/KT/KT) (MB)    (FT/S) (FT/S)
SHELL POINT      NOT AVBL
KEATON BEACH               71      40/  6/  8 1016.1R
CEDAR KEY                  76      70/  9/ 10 1016.4R
FERNANDINA                 78 82  340/  3/  6 1018.0R
30.7N   81.3W                 81                N/A     1/ 8
MAYPORT                    75 80  360/  4/  6 1017.5R
31.4N   80.9W              79 82   40/  8/ 10 1017.2F   1/ 8   2/ 8
ST AUGUSTINE               78 78   30/  9/ 10 1016.7S

$$
FLZ040-043>046-052-053-057-058-063-144-281000-
INTERIOR CENTRAL FLORIDA

CITY           SKY/WX    TMP DP  RH WIND       PRES   REMARKS
OCALA          MOCLDY    73  72  96 N3        30.02S
THE VILLAGES     N/A     73  73 100 CALM      29.92R
LEESBURG       CLEAR     75  74  96 NE5       30.01S
SANFORD        PTCLDY    75  73  93 N5        30.00S
ORLANDO EXEC   CLEAR     75  74  96 N7        30.00R
ORLANDO INTL   PTCLDY    68  68 100 CALM      29.99S
KISSIMMEE      CLEAR     73  73 100 CALM      30.00S
WINTER HAVEN   CLEAR     74  72  93 CALM      30.00S
LAKELAND       CLEAR     72  72 100 CALM      30.00S
BARTOW         FOG       70 N/A N/A CALM      30.00R VSB 3/4
SEBRING        FAIR      74  72  93 CALM      29.98S FOG
OKEECHOBEE     PTCLDY    72  72 100 CALM      29.99S FOG

$$
FLZ041-047-054-059-064-141-147-281000-
EAST CENTRAL FLORIDA

CITY           SKY/WX    TMP DP  RH WIND       PRES   REMARKS
DAYTONA BEACH  PTCLDY    74  73  97 CALM      30.00F
DELAND         CLOUDY    73  72  94 N6        30.00F FOG
CAPE CANAVERAL CLEAR     73  73 100 N6        29.97S
PATRICK AFB    CLEAR     75  75 100 CALM      29.97S
MELBOURNE      CLEAR     77  75  93 CALM      29.98S
VERO BEACH     PTCLDY    76  75  97 SE5       29.98F FOG
FT PIERCE      CLEAR     76  75  97 CALM      29.98S
STUART           N/A     79  77  94 CALM      30.00R

STATION/POSITION SKY/WX   TEMP    WIND        PRES    WAVE   SWELL
                          AIR SEA DIR/SP/G            HT/PER HT/PER
                          (F)     (DEG/KT/KT) (MB)    (FT/S) (FT/S)
28.5N   80.2W              82 84  190/  8/ 10 1016.3S   2/ 7   2/ 7
28.9N   78.5W              83 83  180/  8/ 10 1015.0F   3/ 8   3/ 8
TRIDENT PIER               74 76  350/  3/  4 1017.1R
28.4N   80.5W                 77                N/A     1
27.5N   80.2W                 80                N/A     1/ 7

$$
FLZ050-056-061-142-242-148-248-149-249-151-251-155-255-
160-260-281000-
WEST CENTRAL FLORIDA

CITY           SKY/WX    TMP DP  RH WIND       PRES   REMARKS
CRYSTAL RIVER  FAIR      72  72 100 CALM      30.01R
INVERNESS      FAIR      72  72 100 CALM      30.02R
BROOKSVILLE    CLEAR     70  69  97 CALM      30.01S
CLEARWATER AIR FAIR      73  72  94 CALM      29.99R
ST PETE CLEARW CLEAR     76  72  87 SE3       30.00R
TAMPA INTL     CLEAR     76  71  85 CALM      30.00S
TAMPA EXEC     CLEAR     72  70  94 CALM      30.01R
PLANT CITY     CLEAR     73  73 100 MISG      30.02R
MACDILL AFB    CLEAR     73  73 100 SE3       30.00R
PETER O KNIGHT CLEAR     77  73  88 E3        30.00S
ST PETERSBURG  CLEAR     77  72  84 SE7       29.98R
SARASOTA       CLEAR     74  71  91 CALM      29.97S
VENICE         FAIR      75  73  94 NE7       29.99R

STATION/POSITION SKY/WX   TEMP    WIND        PRES    WAVE   SWELL
                          AIR SEA DIR/SP/G            HT/PER HT/PER
                          (F)     (DEG/KT/KT) (MB)    (FT/S) (FT/S)
27.3N   84.2W                 85                N/A     1/ 5
CLEARWATER BEACH           78 87  110/  3/  5 1015.8R
MIDDLE TAMPA BAY           75     130/  7/  8 1015.6R
VENICE                     76 87   90/  4/  6 1015.2F

$$
FLZ066-069-070-075>078-162-262-165-265-281000-
SOUTHWEST FLORIDA AND KEYS

CITY           SKY/WX    TMP DP  RH WIND       PRES   REMARKS
PUNTA GORDA    CLEAR     74  73  97 E3        29.99S
FT MYERS       CLEAR     75  75 100 CALM      29.97S
SOUTHWEST INTL CLEAR     75  73  93 CALM      29.98R
NAPLES         CLEAR     77  74  90 CALM      29.98R
MARCO ISLAND   MOCLDY    75  72  88 CALM      29.98S
IMMOKALEE      FAIR      73  73 100 CALM      30.00R
MARATHON       MOCLDY    82  77  84 S8        29.98R
KEY WEST NAS   PTCLDY    81  78  91 SE5       29.97F
KEY WEST INTL  MOCLDY    83  76  79 CALM      29.98S

STATION/POSITION SKY/WX   TEMP    WIND        PRES    WAVE   SWELL
                          AIR SEA DIR/SP/G            HT/PER HT/PER
                          (F)     (DEG/KT/KT) (MB)    (FT/S) (FT/S)
NAPLES                        87  100/  4/  6 1015.0S
DRY TORTUGAS               83     120/  8/  9 1015.1F
SAND KEY                   82                 1015.7S
LONG KEY                   83                   N/A
MOLASSES REEF              82 84   40/  2/  3 1015.3F

$$
FLZ067-068-071>074-168-172>174-281000-
SOUTHEAST FLORIDA

CITY           SKY/WX    TMP DP  RH WIND       PRES   REMARKS
W PALM BEACH   CLOUDY    80  74  81 CALM      29.99S
FT LAUDER-EXEC PTCLDY    77  74  90 CALM      29.97F
FT LAUDERDALE  PTCLDY    80  75  84 CALM      29.97S
POMPANO BEACH  PTCLDY    80  77  90 CALM      29.98S
PEMBROKE PINES CLEAR     78  73  84 CALM      29.99S
OPA LOCKA      CLEAR     78  73  84 CALM      29.98S
MIAMI          PTCLDY    79  71  76 CALM      29.98S
WEST KENDALL   PTCLDY    77  73  87 CALM      29.98S
HOMESTEAD      PTCLDY    77  77 100 CALM      29.97S

STATION/POSITION SKY/WX   TEMP    WIND        PRES    WAVE   SWELL
                          AIR SEA DIR/SP/G            HT/PER HT/PER
                          (F)     (DEG/KT/KT) (MB)    (FT/S) (FT/S)
PORT EVERGLADES            83     150/  3/  5 1015.0F
VIRGINIA KEY               82 87  120/  4/  5 1014.4F
LAKE WORTH                 82 83  180/  8/ 10 1016.1S
FOWEY ROCKS                82 83  110/  3/  4 1015.7F
SETTLEMENT POINT           81     140/  4/  4 1015.7R

$$




USA.gov is the U.S. government's official web portal to all federal, state and local government web resources and services.